TKJ9FW LTAC-LOWW

Flight info

Callsign TKJ9FW
Flight time 2h 13m
Altitude 28000
Route ILHAN W71 BUK UL602 DEREL/N0457F340 UL602 MAKOL DCT KOMAN DCT DEGET DCT BALUX DCT TORNO DCT NATEX NATEX2W
Aircraft B738/M-SDE2E3FGHIRWXY/LB1

Departure

Time 2026-04-26 13:20
Airport Esenboğa International Airport (LTAC)

Arrival

Time 2026-04-26 15:33
Airport Vienna International Airport (LOWW)
Time Latitude Longitude Altitude Speed Heading
2026-04-26 11:59 40.11493 32.98952 3112 ft 0 kts 131°
2026-04-26 13:08 40.11507 32.98930 3112 ft 4 kts 130°
2026-04-26 13:08 40.11522 32.98909 3112 ft 4 kts 115°
2026-04-26 13:08 40.11524 32.98879 3112 ft 4 kts 59°
2026-04-26 13:08 40.11509 32.98857 3112 ft 1 kts 39°
2026-04-26 13:12 40.11527 32.98876 3112 ft 6 kts 40°
2026-04-26 13:12 40.11574 32.98931 3112 ft 10 kts 37°
2026-04-26 13:12 40.11636 32.98923 3112 ft 10 kts 316°
2026-04-26 13:12 40.11688 32.98890 3112 ft 9 kts 29°
2026-04-26 13:13 40.11740 32.98940 3112 ft 10 kts 36°
2026-04-26 13:13 40.11808 32.99006 3112 ft 15 kts 36°
2026-04-26 13:13 40.11903 32.99096 3113 ft 19 kts 36°
2026-04-26 13:13 40.12022 32.99211 3114 ft 23 kts 36°
2026-04-26 13:14 40.12157 32.99340 3116 ft 24 kts 36°
2026-04-26 13:14 40.12287 32.99464 3118 ft 23 kts 36°
2026-04-26 13:14 40.12312 32.99487 3118 ft 0 kts 36°
2026-04-26 13:14 40.12312 32.99488 3118 ft 0 kts 36°
2026-04-26 13:15 40.12324 32.99500 3118 ft 6 kts 36°
2026-04-26 13:15 40.12374 32.99547 3119 ft 12 kts 36°
2026-04-26 13:15 40.12460 32.99629 3120 ft 18 kts 36°
2026-04-26 13:15 40.12535 32.99700 3121 ft 22 kts 36°
2026-04-26 13:16 40.12727 32.99884 3122 ft 27 kts 36°
2026-04-26 13:16 40.12876 33.00027 3123 ft 26 kts 36°
2026-04-26 13:16 40.13014 33.00158 3124 ft 24 kts 36°
2026-04-26 13:16 40.13145 33.00284 3125 ft 23 kts 36°
2026-04-26 13:17 40.13395 33.00522 3129 ft 22 kts 36°
2026-04-26 13:17 40.13517 33.00640 3130 ft 23 kts 36°
2026-04-26 13:18 40.13799 33.00908 3133 ft 24 kts 36°
2026-04-26 13:18 40.13929 33.01033 3134 ft 21 kts 36°
2026-04-26 13:18 40.14109 33.00957 3135 ft 16 kts 288°
2026-04-26 13:19 40.14163 33.00839 3135 ft 15 kts 306°
2026-04-26 13:19 40.14218 33.00742 3135 ft 8 kts 305°
2026-04-26 13:19 40.14210 33.00689 3135 ft 7 kts 221°
2026-04-26 13:19 40.14163 33.00644 3134 ft 16 kts 216°
2026-04-26 13:20 40.13884 33.00378 3132 ft 84 kts 216°
2026-04-26 13:20 40.13242 32.99766 3124 ft 143 kts 216°
2026-04-26 13:20 40.12319 32.98884 3291 ft 176 kts 216°
2026-04-26 13:20 40.11317 32.97945 4073 ft 174 kts 218°
2026-04-26 13:21 40.10341 32.97016 4882 ft 180 kts 218°
2026-04-26 13:21 40.09654 32.96363 5164 ft 189 kts 218°
2026-04-26 13:21 40.08197 32.94987 5692 ft 202 kts 219°
2026-04-26 13:21 40.07014 32.93861 5886 ft 219 kts 218°
2026-04-26 13:22 40.05732 32.92646 6085 ft 235 kts 217°
2026-04-26 13:22 40.04357 32.91344 6314 ft 252 kts 218°
2026-04-26 13:22 40.02880 32.89951 6607 ft 271 kts 218°
2026-04-26 13:22 40.01341 32.88485 7231 ft 275 kts 219°
2026-04-26 13:23 39.99833 32.86961 8006 ft 272 kts 229°
2026-04-26 13:23 39.98891 32.84877 8599 ft 274 kts 256°
2026-04-26 13:23 39.98783 32.82411 9313 ft 274 kts 279°
2026-04-26 13:23 39.99437 32.80074 9975 ft 274 kts 301°
2026-04-26 13:24 40.00721 32.78217 10484 ft 285 kts 321°
2026-04-26 13:24 40.02420 32.76690 10614 ft 307 kts 326°
2026-04-26 13:24 40.04289 32.75165 10775 ft 327 kts 327°
2026-04-26 13:24 40.06257 32.73589 10919 ft 345 kts 327°
2026-04-26 13:25 40.08345 32.71914 11202 ft 356 kts 327°
2026-04-26 13:25 40.10472 32.70194 11652 ft 363 kts 326°
2026-04-26 13:25 40.12631 32.68435 12174 ft 367 kts 326°
2026-04-26 13:25 40.14800 32.66656 12830 ft 368 kts 326°
2026-04-26 13:26 40.16976 32.64864 13527 ft 370 kts 326°
2026-04-26 13:26 40.19169 32.63052 14081 ft 374 kts 326°
2026-04-26 13:26 40.21360 32.61236 14596 ft 379 kts 326°
2026-04-26 13:26 40.23607 32.59372 15182 ft 382 kts 326°
2026-04-26 13:27 40.25856 32.57504 15817 ft 384 kts 326°
2026-04-26 13:27 40.28137 32.55606 16291 ft 391 kts 326°
2026-04-26 13:27 40.30416 32.53709 16846 ft 394 kts 326°
2026-04-26 13:27 40.32744 32.51770 17508 ft 395 kts 327°
2026-04-26 13:28 40.35085 32.49818 18106 ft 397 kts 326°
2026-04-26 13:28 40.37416 32.47872 18697 ft 399 kts 327°
2026-04-26 13:28 40.39782 32.45896 19088 ft 405 kts 326°
2026-04-26 13:28 40.42127 32.43936 19701 ft 404 kts 327°
2026-04-26 13:29 40.44519 32.41936 20147 ft 408 kts 326°
2026-04-26 13:29 40.46110 32.40605 20409 ft 411 kts 326°
2026-04-26 13:29 40.49364 32.37878 20904 ft 418 kts 326°
2026-04-26 13:29 40.51843 32.35800 21333 ft 421 kts 326°
2026-04-26 13:30 40.54280 32.33753 21896 ft 421 kts 326°
2026-04-26 13:30 40.56765 32.31664 22272 ft 425 kts 326°
2026-04-26 13:30 40.59279 32.29551 22558 ft 432 kts 326°
2026-04-26 13:30 40.61817 32.27416 22993 ft 434 kts 326°
2026-04-26 13:31 40.64358 32.25276 23521 ft 434 kts 326°
2026-04-26 13:31 40.66913 32.23122 23897 ft 436 kts 326°
2026-04-26 13:31 40.69477 32.20957 24175 ft 439 kts 326°
2026-04-26 13:31 40.71827 32.18466 24572 ft 437 kts 310°
2026-04-26 13:32 40.73593 32.15220 24998 ft 436 kts 303°
2026-04-26 13:32 40.75248 32.11846 25261 ft 440 kts 302°
2026-04-26 13:32 40.76890 32.08459 25776 ft 437 kts 303°
2026-04-26 13:32 40.78536 32.05069 26030 ft 441 kts 303°
2026-04-26 13:33 40.80215 32.01630 26124 ft 449 kts 303°
2026-04-26 13:33 40.81925 31.98144 26286 ft 454 kts 303°
2026-04-26 13:33 40.83622 31.94701 26714 ft 451 kts 303°
2026-04-26 13:33 40.85335 31.91229 27223 ft 449 kts 304°
2026-04-26 13:34 40.87039 31.87778 27650 ft 447 kts 304°
2026-04-26 13:34 40.88751 31.84308 27821 ft 452 kts 304°
2026-04-26 13:34 40.90456 31.80851 28086 ft 454 kts 304°
2026-04-26 13:34 40.91035 31.79674 28249 ft 452 kts 304°
2026-04-26 13:35 40.93886 31.73879 28906 ft 451 kts 303°
2026-04-26 13:35 40.95603 31.70382 29141 ft 454 kts 303°
2026-04-26 13:35 40.97306 31.66911 29475 ft 454 kts 303°
2026-04-26 13:35 40.99011 31.63431 30136 ft 446 kts 303°
2026-04-26 13:36 41.00692 31.59996 30537 ft 444 kts 303°
2026-04-26 13:36 41.02377 31.56549 30728 ft 446 kts 303°
2026-04-26 13:36 41.04072 31.53078 30914 ft 449 kts 303°
2026-04-26 13:36 41.05764 31.49609 31247 ft 447 kts 303°
2026-04-26 13:37 41.07442 31.46163 31704 ft 443 kts 303°
2026-04-26 13:37 41.08545 31.43895 31988 ft 440 kts 303°
2026-04-26 13:37 41.10201 31.40486 32301 ft 440 kts 303°
2026-04-26 13:37 41.12404 31.35950 32591 ft 441 kts 303°
2026-04-26 13:38 41.13525 31.33641 32780 ft 441 kts 303°
2026-04-26 13:38 41.15183 31.30222 33097 ft 439 kts 303°
2026-04-26 13:38 41.16834 31.26813 33416 ft 438 kts 303°
2026-04-26 13:38 41.18463 31.23444 33672 ft 438 kts 303°
2026-04-26 13:39 41.20113 31.20028 33935 ft 437 kts 303°
2026-04-26 13:39 41.23408 31.13195 33982 ft 439 kts 303°
2026-04-26 13:40 41.26690 31.06373 33971 ft 436 kts 303°
2026-04-26 13:40 41.29927 30.99630 33973 ft 433 kts 303°
2026-04-26 13:41 41.33154 30.92891 33973 ft 431 kts 303°
2026-04-26 13:41 41.36368 30.86167 33976 ft 430 kts 303°
2026-04-26 13:42 41.39576 30.79438 33972 ft 430 kts 303°
2026-04-26 13:42 41.42765 30.72738 33975 ft 431 kts 302°
2026-04-26 13:43 41.45995 30.65991 33970 ft 432 kts 303°
2026-04-26 13:43 41.49251 30.59217 33977 ft 433 kts 303°
2026-04-26 13:44 41.52503 30.52433 33972 ft 434 kts 302°
2026-04-26 13:44 41.55744 30.45648 33961 ft 435 kts 302°
2026-04-26 13:45 41.58988 30.38839 33966 ft 434 kts 302°
2026-04-26 13:45 41.62236 30.32005 33958 ft 434 kts 302°
2026-04-26 13:46 41.65450 30.25230 33967 ft 433 kts 302°
2026-04-26 13:46 41.68657 30.18452 33959 ft 432 kts 302°
2026-04-26 13:47 41.71866 30.11656 33963 ft 430 kts 302°
2026-04-26 13:47 41.75045 30.04909 33959 ft 429 kts 302°
2026-04-26 13:48 41.78227 29.98140 33957 ft 429 kts 302°
2026-04-26 13:48 41.81402 29.91370 33942 ft 428 kts 302°
2026-04-26 13:49 41.84567 29.84605 33951 ft 428 kts 302°
2026-04-26 13:49 41.87727 29.77838 33948 ft 427 kts 302°
2026-04-26 13:50 41.90861 29.71109 33952 ft 427 kts 302°
2026-04-26 13:50 41.94010 29.64336 33956 ft 427 kts 301°
2026-04-26 13:51 41.97164 29.57533 33949 ft 428 kts 301°
2026-04-26 13:51 42.00295 29.50769 33958 ft 428 kts 301°
2026-04-26 13:52 42.03441 29.43953 33951 ft 428 kts 301°
2026-04-26 13:52 42.06565 29.37171 33949 ft 428 kts 301°
2026-04-26 13:53 42.09708 29.30332 34165 ft 430 kts 301°
2026-04-26 13:53 42.11277 29.26911 34423 ft 428 kts 301°
2026-04-26 13:53 42.12842 29.23495 34717 ft 426 kts 301°
2026-04-26 13:53 42.14395 29.20103 35013 ft 423 kts 301°
2026-04-26 13:54 42.15939 29.16728 35239 ft 423 kts 301°
2026-04-26 13:54 42.17557 29.13404 35390 ft 424 kts 306°
2026-04-26 13:54 42.19428 29.10385 35567 ft 425 kts 310°
2026-04-26 13:55 42.23348 29.04445 35937 ft 424 kts 310°
2026-04-26 13:55 42.24658 29.02469 35921 ft 426 kts 310°
2026-04-26 13:56 42.31197 28.92476 35932 ft 422 kts 309°
2026-04-26 13:56 42.35034 28.86544 35934 ft 419 kts 309°
2026-04-26 13:57 42.38857 28.80608 35934 ft 417 kts 309°
2026-04-26 13:57 42.42670 28.74675 35932 ft 417 kts 309°
2026-04-26 13:58 42.46479 28.68738 35928 ft 418 kts 309°
2026-04-26 13:58 42.50277 28.62806 35929 ft 419 kts 309°
2026-04-26 13:59 42.54113 28.56803 35926 ft 421 kts 309°
2026-04-26 13:59 42.57938 28.50805 35924 ft 423 kts 309°
2026-04-26 14:00 42.65667 28.38650 35921 ft 426 kts 309°
2026-04-26 14:01 42.69541 28.32536 35915 ft 427 kts 309°
2026-04-26 14:01 42.73392 28.26448 35912 ft 427 kts 309°
2026-04-26 14:02 42.77267 28.20310 35908 ft 427 kts 309°
2026-04-26 14:02 42.81136 28.14167 35906 ft 426 kts 309°
2026-04-26 14:03 42.84974 28.08060 35905 ft 425 kts 309°
2026-04-26 14:03 42.88825 28.01921 35904 ft 425 kts 309°
2026-04-26 14:04 42.92636 27.95833 35896 ft 424 kts 309°
2026-04-26 14:04 42.96469 27.89696 35885 ft 423 kts 309°
2026-04-26 14:05 43.00289 27.83567 35879 ft 423 kts 309°
2026-04-26 14:05 43.04081 27.77470 35875 ft 422 kts 309°
2026-04-26 14:06 43.07887 27.71337 35865 ft 423 kts 309°
2026-04-26 14:06 43.11679 27.65214 35867 ft 423 kts 309°
2026-04-26 14:07 43.15486 27.59055 35866 ft 423 kts 309°
2026-04-26 14:07 43.19297 27.52876 35866 ft 424 kts 309°
2026-04-26 14:08 43.23092 27.46711 35881 ft 425 kts 309°
2026-04-26 14:08 43.26919 27.40479 35880 ft 427 kts 309°
2026-04-26 14:09 43.30748 27.34231 35883 ft 428 kts 309°
2026-04-26 14:09 43.34566 27.27988 35885 ft 429 kts 309°
2026-04-26 14:10 43.38412 27.21684 35885 ft 430 kts 309°
2026-04-26 14:10 43.42234 27.15406 35887 ft 430 kts 309°
2026-04-26 14:11 43.48010 27.05894 35894 ft 431 kts 310°
2026-04-26 14:11 43.51845 26.99557 35884 ft 430 kts 310°
2026-04-26 14:12 43.55653 26.93255 35879 ft 430 kts 310°
2026-04-26 14:12 43.59477 26.86916 35884 ft 429 kts 310°
2026-04-26 14:13 43.65192 26.77414 35889 ft 427 kts 310°
2026-04-26 14:14 43.68959 26.71131 35892 ft 427 kts 310°
2026-04-26 14:14 43.72742 26.64808 35883 ft 426 kts 310°
2026-04-26 14:15 43.76522 26.58477 35891 ft 425 kts 309°
2026-04-26 14:15 43.80266 26.52192 35889 ft 425 kts 309°
2026-04-26 14:16 43.84039 26.45844 35885 ft 425 kts 309°
2026-04-26 14:16 43.87769 26.39557 35884 ft 424 kts 309°
2026-04-26 14:17 43.91516 26.33226 35885 ft 424 kts 309°
2026-04-26 14:17 43.95254 26.26896 35881 ft 424 kts 309°
2026-04-26 14:18 43.98985 26.20549 35881 ft 423 kts 309°
2026-04-26 14:18 44.02570 26.14114 35881 ft 423 kts 307°
2026-04-26 14:19 44.06125 26.07588 35881 ft 423 kts 307°
2026-04-26 14:19 44.09674 26.01079 35870 ft 424 kts 307°
2026-04-26 14:20 44.13245 25.94545 35879 ft 424 kts 308°
2026-04-26 14:20 44.16799 25.88038 35887 ft 424 kts 307°
2026-04-26 14:21 44.20377 25.81476 35885 ft 424 kts 307°
2026-04-26 14:21 44.23340 25.76031 35875 ft 423 kts 307°
2026-04-26 14:22 44.26899 25.69476 35879 ft 422 kts 307°
2026-04-26 14:22 44.30423 25.62972 35882 ft 421 kts 307°
2026-04-26 14:23 44.33959 25.56429 35887 ft 421 kts 307°
2026-04-26 14:23 44.37468 25.49922 35880 ft 420 kts 307°
2026-04-26 14:24 44.40982 25.43392 35883 ft 419 kts 307°
2026-04-26 14:24 44.44476 25.36885 35889 ft 419 kts 307°
2026-04-26 14:25 44.47976 25.30350 35886 ft 419 kts 307°
2026-04-26 14:25 44.51475 25.23803 35898 ft 419 kts 307°
2026-04-26 14:26 44.54950 25.17286 35883 ft 419 kts 307°
2026-04-26 14:26 44.58441 25.10725 35894 ft 419 kts 307°
2026-04-26 14:27 44.61923 25.04165 35900 ft 419 kts 307°
2026-04-26 14:27 44.65400 24.97600 35901 ft 418 kts 307°
2026-04-26 14:28 44.68850 24.91070 35900 ft 418 kts 306°
2026-04-26 14:28 44.72323 24.84484 35904 ft 418 kts 306°
2026-04-26 14:29 44.75770 24.77929 35910 ft 419 kts 306°
2026-04-26 14:29 44.79242 24.71314 35915 ft 419 kts 306°
2026-04-26 14:30 44.82707 24.64695 35915 ft 419 kts 306°
2026-04-26 14:30 44.86149 24.58107 35922 ft 419 kts 306°
2026-04-26 14:31 44.89612 24.51462 35942 ft 419 kts 306°
2026-04-26 14:31 44.93051 24.44848 35927 ft 419 kts 306°
2026-04-26 14:32 44.96495 24.38210 35940 ft 418 kts 306°
2026-04-26 14:32 44.99920 24.31592 35939 ft 416 kts 306°
2026-04-26 14:33 45.03331 24.24987 35937 ft 415 kts 306°
2026-04-26 14:33 45.06728 24.18393 35943 ft 413 kts 306°
2026-04-26 14:34 45.10089 24.11855 35951 ft 412 kts 306°
2026-04-26 14:34 45.13457 24.05286 35947 ft 411 kts 306°
2026-04-26 14:35 45.16798 23.98757 35959 ft 410 kts 306°
2026-04-26 14:35 45.20142 23.92207 35964 ft 410 kts 306°
2026-04-26 14:36 45.23490 23.85633 35966 ft 411 kts 306°
2026-04-26 14:36 45.26823 23.79075 35980 ft 412 kts 306°
2026-04-26 14:37 45.30176 23.72461 35991 ft 412 kts 306°
2026-04-26 14:37 45.33530 23.65830 35990 ft 413 kts 305°
2026-04-26 14:38 45.36884 23.59183 35978 ft 414 kts 305°
2026-04-26 14:38 45.40243 23.52513 35997 ft 414 kts 305°
2026-04-26 14:39 45.43588 23.45853 35998 ft 415 kts 305°
2026-04-26 14:39 45.46952 23.39137 35989 ft 415 kts 305°
2026-04-26 14:40 45.50314 23.32414 35995 ft 415 kts 305°
2026-04-26 14:40 45.53636 23.25752 36004 ft 415 kts 305°
2026-04-26 14:41 45.56978 23.19035 35999 ft 415 kts 304°
2026-04-26 14:41 45.60316 23.12311 36014 ft 415 kts 304°
2026-04-26 14:42 45.63641 23.05595 36043 ft 416 kts 304°
2026-04-26 14:42 45.66991 22.98815 36023 ft 417 kts 304°
2026-04-26 14:43 45.70334 22.92031 36022 ft 417 kts 304°
2026-04-26 14:43 45.73670 22.85245 36023 ft 417 kts 304°
2026-04-26 14:44 45.76979 22.78424 36027 ft 416 kts 303°
2026-04-26 14:44 45.80146 22.71505 36038 ft 416 kts 302°
2026-04-26 14:45 45.83276 22.64584 36041 ft 416 kts 303°
2026-04-26 14:45 45.86433 22.57622 36038 ft 416 kts 302°
2026-04-26 14:46 45.89592 22.50669 36046 ft 416 kts 303°
2026-04-26 14:46 45.92755 22.43698 36051 ft 416 kts 302°
2026-04-26 14:47 45.95897 22.36757 36061 ft 416 kts 302°
2026-04-26 14:47 45.99062 22.29749 36066 ft 417 kts 302°
2026-04-26 14:48 46.02225 22.22728 36094 ft 417 kts 302°
2026-04-26 14:48 46.05361 22.15747 36077 ft 417 kts 302°
2026-04-26 14:49 46.08511 22.08718 36069 ft 417 kts 302°
2026-04-26 14:49 46.11648 22.01702 36068 ft 416 kts 302°
2026-04-26 14:50 46.14762 21.94719 36068 ft 415 kts 302°
2026-04-26 14:50 46.17875 21.87720 36080 ft 414 kts 302°
2026-04-26 14:51 46.20979 21.80724 36077 ft 413 kts 302°
2026-04-26 14:51 46.24077 21.73725 36087 ft 413 kts 302°
2026-04-26 14:52 46.27171 21.66718 36077 ft 413 kts 302°
2026-04-26 14:52 46.30256 21.59713 36081 ft 414 kts 302°
2026-04-26 14:53 46.33332 21.52709 36082 ft 414 kts 302°
2026-04-26 14:53 46.36431 21.45638 36085 ft 416 kts 302°
2026-04-26 14:54 46.39532 21.38542 36086 ft 417 kts 302°
2026-04-26 14:54 46.42612 21.31476 36086 ft 418 kts 301°
2026-04-26 14:55 46.45728 21.24310 36088 ft 419 kts 301°
2026-04-26 14:55 46.48837 21.17141 36089 ft 420 kts 301°
2026-04-26 14:56 46.51930 21.09993 36092 ft 420 kts 301°
2026-04-26 14:56 46.55038 21.02789 36096 ft 420 kts 301°
2026-04-26 14:57 46.58120 20.95628 36095 ft 420 kts 301°
2026-04-26 14:57 46.61212 20.88425 36094 ft 419 kts 301°
2026-04-26 14:58 46.64293 20.81229 36097 ft 418 kts 301°
2026-04-26 14:58 46.67361 20.74044 36098 ft 417 kts 301°
2026-04-26 14:59 46.70401 20.66906 36090 ft 416 kts 301°
2026-04-26 14:59 46.73445 20.59740 36107 ft 416 kts 301°
2026-04-26 15:00 46.76488 20.52558 36105 ft 417 kts 301°
2026-04-26 15:00 46.79518 20.45388 36108 ft 417 kts 301°
2026-04-26 15:01 46.82575 20.38136 36115 ft 418 kts 301°
2026-04-26 15:01 46.85626 20.30876 36116 ft 418 kts 301°
2026-04-26 15:02 46.88655 20.23652 36109 ft 418 kts 301°
2026-04-26 15:02 46.91692 20.16390 36122 ft 418 kts 301°
2026-04-26 15:03 46.94702 20.09174 36123 ft 417 kts 301°
2026-04-26 15:03 46.97728 20.01898 36116 ft 417 kts 301°
2026-04-26 15:04 47.00720 19.94688 36130 ft 416 kts 300°
2026-04-26 15:04 47.03731 19.87409 36132 ft 417 kts 300°
2026-04-26 15:05 47.06739 19.80121 36132 ft 417 kts 300°
2026-04-26 15:05 47.09726 19.72864 36136 ft 418 kts 300°
2026-04-26 15:06 47.12730 19.65544 36139 ft 418 kts 300°
2026-04-26 15:06 47.15224 19.59453 36147 ft 419 kts 300°
2026-04-26 15:07 47.19733 19.48408 36152 ft 420 kts 300°
2026-04-26 15:07 47.22718 19.41070 36156 ft 420 kts 300°
2026-04-26 15:08 47.25710 19.33693 36160 ft 420 kts 300°
2026-04-26 15:08 47.28709 19.26281 36157 ft 420 kts 300°
2026-04-26 15:09 47.31546 19.18830 36153 ft 420 kts 292°
2026-04-26 15:09 47.33663 19.10808 36155 ft 419 kts 290°
2026-04-26 15:10 47.35375 19.04108 36146 ft 419 kts 290°
2026-04-26 15:10 47.36780 18.98665 35431 ft 425 kts 290°
2026-04-26 15:10 47.37817 18.94682 34816 ft 423 kts 291°
2026-04-26 15:11 47.38879 18.90620 34177 ft 423 kts 291°
2026-04-26 15:11 47.39944 18.86553 33430 ft 424 kts 291°
2026-04-26 15:11 47.41007 18.82491 32724 ft 424 kts 291°
2026-04-26 15:11 47.42074 18.78412 32014 ft 424 kts 291°
2026-04-26 15:12 47.43123 18.74395 31310 ft 424 kts 291°
2026-04-26 15:12 47.44182 18.70331 30595 ft 424 kts 292°
2026-04-26 15:12 47.45237 18.66275 30072 ft 419 kts 292°
2026-04-26 15:12 47.46276 18.62272 29495 ft 414 kts 292°
2026-04-26 15:13 47.47299 18.58323 28962 ft 408 kts 292°
2026-04-26 15:13 47.48308 18.54423 28451 ft 403 kts 292°
2026-04-26 15:13 47.49302 18.50573 27936 ft 398 kts 292°
2026-04-26 15:13 47.50272 18.46812 27441 ft 393 kts 292°
2026-04-26 15:14 47.51241 18.43048 26949 ft 389 kts 292°
2026-04-26 15:14 47.52199 18.39322 26445 ft 385 kts 292°
2026-04-26 15:14 47.53148 18.35621 25945 ft 382 kts 292°
2026-04-26 15:14 47.54089 18.31948 25452 ft 379 kts 292°
2026-04-26 15:15 47.55008 18.28355 24987 ft 376 kts 293°
2026-04-26 15:15 47.55931 18.24742 24489 ft 373 kts 293°
2026-04-26 15:15 47.56845 18.21159 24026 ft 370 kts 293°
2026-04-26 15:15 47.57752 18.17595 23520 ft 368 kts 293°
2026-04-26 15:16 47.58654 18.14048 22990 ft 366 kts 293°
2026-04-26 15:16 47.59546 18.10534 22518 ft 362 kts 293°
2026-04-26 15:16 47.60414 18.07106 22046 ft 359 kts 293°
2026-04-26 15:16 47.61288 18.03653 21563 ft 357 kts 293°
2026-04-26 15:17 47.62158 18.00210 21112 ft 355 kts 293°
2026-04-26 15:17 47.62730 17.97945 20803 ft 355 kts 293°
2026-04-26 15:17 47.63900 17.93305 20191 ft 364 kts 293°
2026-04-26 15:17 47.64794 17.89759 19711 ft 368 kts 293°
2026-04-26 15:18 47.65684 17.86211 19215 ft 365 kts 293°
2026-04-26 15:18 47.66564 17.82695 18746 ft 362 kts 293°
2026-04-26 15:18 47.67428 17.79241 18261 ft 359 kts 293°
2026-04-26 15:18 47.68295 17.75772 17746 ft 356 kts 293°
2026-04-26 15:19 47.69153 17.72330 17265 ft 353 kts 293°
2026-04-26 15:19 47.69917 17.68877 16746 ft 352 kts 286°
2026-04-26 15:19 47.70547 17.65371 16192 ft 350 kts 290°
2026-04-26 15:19 47.71323 17.61951 15683 ft 348 kts 292°
2026-04-26 15:20 47.72123 17.58610 15122 ft 339 kts 292°
2026-04-26 15:20 47.72911 17.55324 14297 ft 338 kts 291°
2026-04-26 15:20 47.73688 17.52031 13455 ft 337 kts 291°
2026-04-26 15:20 47.74449 17.48755 12711 ft 331 kts 291°
2026-04-26 15:21 47.75183 17.45551 12138 ft 322 kts 291°
2026-04-26 15:21 47.75877 17.42494 11741 ft 309 kts 291°
2026-04-26 15:21 47.76553 17.39499 11354 ft 298 kts 291°
2026-04-26 15:21 47.77195 17.36638 11067 ft 285 kts 291°
2026-04-26 15:22 47.77811 17.33892 10766 ft 275 kts 291°
2026-04-26 15:22 47.78405 17.31241 10469 ft 265 kts 291°
2026-04-26 15:22 47.78972 17.28707 10190 ft 257 kts 291°
2026-04-26 15:22 47.79533 17.26194 9916 ft 254 kts 291°
2026-04-26 15:23 47.80085 17.23724 9679 ft 250 kts 291°
2026-04-26 15:23 47.80631 17.21278 9418 ft 248 kts 291°
2026-04-26 15:23 47.81173 17.18842 9128 ft 246 kts 291°
2026-04-26 15:23 47.81714 17.16412 8728 ft 249 kts 291°
2026-04-26 15:24 47.82256 17.13975 8412 ft 253 kts 291°
2026-04-26 15:24 47.82811 17.11475 8119 ft 254 kts 291°
2026-04-26 15:24 47.83362 17.08987 7825 ft 252 kts 290°
2026-04-26 15:24 47.83907 17.06521 7562 ft 249 kts 290°
2026-04-26 15:25 47.84446 17.04079 7296 ft 247 kts 290°
2026-04-26 15:25 47.84800 17.02472 7118 ft 246 kts 290°
2026-04-26 15:25 47.85504 16.99275 6786 ft 243 kts 290°
2026-04-26 15:25 47.86030 16.96888 6514 ft 242 kts 290°
2026-04-26 15:26 47.86552 16.94510 6213 ft 240 kts 290°
2026-04-26 15:26 47.87069 16.92156 5958 ft 238 kts 291°
2026-04-26 15:26 47.87581 16.89822 5696 ft 241 kts 291°
2026-04-26 15:26 47.88106 16.87428 5431 ft 245 kts 291°
2026-04-26 15:27 47.88631 16.85028 5323 ft 243 kts 291°
2026-04-26 15:27 47.89152 16.82643 5197 ft 239 kts 291°
2026-04-26 15:27 47.89655 16.80330 5117 ft 228 kts 291°
2026-04-26 15:27 47.90134 16.78130 5008 ft 220 kts 292°
2026-04-26 15:28 47.90607 16.75968 4819 ft 221 kts 291°
2026-04-26 15:28 47.91087 16.73769 4565 ft 224 kts 291°
2026-04-26 15:28 47.91567 16.71560 4322 ft 226 kts 291°
2026-04-26 15:28 47.92057 16.69314 4057 ft 229 kts 291°
2026-04-26 15:29 47.92552 16.67097 3787 ft 225 kts 297°
2026-04-26 15:29 47.93507 16.65447 3684 ft 204 kts 335°
2026-04-26 15:29 47.96080 16.64563 3233 ft 182 kts 345°
2026-04-26 15:30 47.98411 16.63569 2771 ft 172 kts 345°
2026-04-26 15:30 47.99535 16.63092 2512 ft 165 kts 345°
2026-04-26 15:30 48.00602 16.62639 2293 ft 154 kts 345°
2026-04-26 15:31 48.01621 16.62205 2109 ft 150 kts 346°
2026-04-26 15:31 48.03488 16.61412 1710 ft 133 kts 348°
2026-04-26 15:31 48.04388 16.61036 1487 ft 135 kts 345°
2026-04-26 15:32 48.05908 16.60380 1237 ft 141 kts 346°
2026-04-26 15:32 48.07179 16.59845 971 ft 141 kts 345°
2026-04-26 15:32 48.08097 16.59455 769 ft 135 kts 344°
2026-04-26 15:33 48.09011 16.59068 631 ft 134 kts 346°
2026-04-26 15:33 48.09823 16.58729 614 ft 103 kts 343°
2026-04-26 15:33 48.10349 16.58505 611 ft 51 kts 344°
2026-04-26 15:33 48.10592 16.58398 617 ft 32 kts 338°
2026-04-26 15:34 48.10759 16.58237 612 ft 19 kts 315°
2026-04-26 15:34 48.10840 16.58112 616 ft 15 kts 315°
2026-04-26 15:34 48.10892 16.58034 618 ft 10 kts 314°
2026-04-26 15:34 48.10946 16.57977 611 ft 10 kts 339°
2026-04-26 15:35 48.11014 16.57947 619 ft 11 kts 344°
2026-04-26 15:35 48.11084 16.57908 613 ft 11 kts 325°
2026-04-26 15:35 48.11127 16.57805 616 ft 13 kts 296°
2026-04-26 15:35 48.11168 16.57682 612 ft 13 kts 296°
2026-04-26 15:36 48.11213 16.57544 616 ft 17 kts 296°
2026-04-26 15:36 48.11274 16.57357 612 ft 21 kts 296°
2026-04-26 15:36 48.11339 16.57158 613 ft 21 kts 296°
2026-04-26 15:36 48.11401 16.56968 616 ft 20 kts 296°
2026-04-26 15:37 48.11462 16.56780 617 ft 20 kts 296°
2026-04-26 15:37 48.11521 16.56597 612 ft 19 kts 296°
2026-04-26 15:37 48.11578 16.56421 614 ft 18 kts 296°
2026-04-26 15:37 48.11625 16.56283 616 ft 12 kts 304°
2026-04-26 15:38 48.11687 16.56265 618 ft 10 kts 24°
2026-04-26 15:38 48.11747 16.56310 617 ft 9 kts 26°
2026-04-26 15:38 48.11793 16.56288 608 ft 8 kts 303°
2026-04-26 15:38 48.11820 16.56225 611 ft 5 kts 303°
2026-04-26 15:39 48.11825 16.56214 622 ft 0 kts 303°